Date String (YYYY-MM-DD hh:mm:ss) UTC,Instrument flags,Ambient pressure (hPa),Sample flow (lpm),Bypass flow (lpm),Sample temperature (°C),Ambient temperature (°C),ASC tube jacket temperature (°C),LED temperature (°C),Box temperature (°C),Sample RH (%),Span deviation,Mass concentration (μg/m³),Mass concentration (μg/m³),Mass concentration (μg/m³)
DateTimeUTC,F1_M11,P_M11,Q1_M11,Q2_M11,T1_M11,T2_M11,T3_M11,T4_M11,T5_M11,U1_M11,ZSPAN_M11,X0_M11,X2_M11,X1_M11
2023-01-25 21:00:00,,0826.8,4.99,0.00,21.6,20.1,00.0,30.4,23.2,10.1,0000.0,0005.39,0002.93,0002.67
2023-01-25 21:01:00,,0826.8,5.06,0.00,21.6,20.0,00.0,30.4,23.1,10.4,0000.0,0005.32,0002.91,0002.65
2023-01-25 21:02:00,,0826.9,5.00,0.00,21.5,19.8,00.0,30.4,23.0,10.4,0000.0,0005.25,0002.86,0002.59
2023-01-25 21:03:00,,0827.1,4.98,0.00,21.5,19.7,00.0,30.4,23.1,10.6,0000.0,0004.99,0002.79,0002.54
2023-01-25 21:04:00,,0826.9,5.00,0.00,21.5,19.7,00.0,30.4,23.1,10.4,0000.0,0004.89,0002.75,0002.49
2023-01-25 21:05:00,,0826.9,5.02,0.00,21.5,19.6,00.0,30.4,23.0,10.3,0000.0,0004.85,0002.73,0002.45
2023-01-25 21:06:00,,0827.0,5.01,0.00,21.4,19.6,00.0,30.3,23.0,10.3,0000.0,0004.63,0002.69,0002.41
2023-01-25 21:07:00,,0826.9,4.99,0.00,21.4,19.5,00.0,30.3,22.9,10.3,0000.0,0003.55,0002.65,0002.37
2023-01-25 21:08:00,,0827.0,5.00,0.00,21.4,19.5,00.0,30.3,22.9,10.5,0000.0,0003.66,0002.65,0002.32
2023-01-25 21:09:00,,0826.9,5.00,0.00,21.4,19.5,00.0,30.3,22.9,10.3,0000.0,0003.65,0002.62,0002.29
2023-01-25 21:10:00,,0826.9,5.01,0.00,21.3,19.4,00.0,30.3,22.8,10.3,0000.0,0003.62,0002.59,0002.26
2023-01-25 21:11:00,,0826.9,5.01,0.00,21.3,19.6,00.0,30.2,22.9,10.5,0000.0,0003.53,0002.56,0002.22
2023-01-25 21:12:00,,0826.8,5.00,0.00,21.4,20.7,00.0,30.2,23.1,10.6,0000.0,0003.51,0002.55,0002.22
2023-01-25 21:13:00,,0826.9,5.00,0.00,21.5,22.0,00.0,30.2,23.4,10.7,0000.0,0003.68,0002.62,0002.22
2023-01-25 21:14:00,,0827.0,5.00,0.00,21.6,21.8,00.0,30.3,23.5,10.5,0000.0,0003.70,0002.63,0002.23
2023-01-25 21:15:00,,0827.0,5.00,0.00,21.6,21.3,00.0,30.3,23.4,10.5,0000.0,0003.69,0002.64,0002.24
2023-01-25 21:16:00,,0827.0,5.01,0.00,21.6,20.8,00.0,30.3,23.3,10.6,0000.0,0003.99,0002.64,0002.26
2023-01-25 21:17:00,,0826.9,4.99,0.00,21.6,20.4,00.0,30.3,23.2,10.6,0000.0,0006.57,0002.71,0002.27
2023-01-25 21:18:00,,0827.0,5.01,0.00,21.5,20.1,00.0,30.3,23.1,10.5,0000.0,0006.97,0002.75,0002.29
2023-01-25 21:19:00,,0827.1,5.01,0.00,21.5,19.8,00.0,30.3,23.0,10.6,0000.0,0007.08,0002.77,0002.31
2023-01-25 21:20:00,,0827.0,4.99,0.00,21.4,19.7,00.0,30.3,22.9,10.8,0000.0,0007.37,0002.86,0002.32
2023-01-25 21:21:00,,0827.3,5.01,0.00,21.4,19.6,00.0,30.3,22.9,10.9,0000.0,0007.35,0002.85,0002.33
2023-01-25 21:22:00,,0827.4,5.00,0.00,21.4,19.6,00.0,30.3,22.9,11.1,0000.0,0007.41,0002.90,0002.35
2023-01-25 21:23:00,,0827.2,5.01,0.00,21.4,19.6,00.0,30.3,22.9,11.1,0000.0,0007.39,0002.89,0002.36
2023-01-25 21:24:00,,0827.0,5.00,0.00,21.3,19.5,00.0,30.2,22.9,11.2,0000.0,0007.31,0002.83,0002.37
2023-01-25 21:25:00,,0827.0,4.99,0.00,21.3,19.5,00.0,30.2,22.8,10.9,0000.0,0007.32,0002.83,0002.37
2023-01-25 21:26:00,,0827.4,5.01,0.00,21.3,19.4,00.0,30.2,22.7,10.8,0000.0,0007.33,0002.84,0002.36
2023-01-25 21:27:00,,0827.1,5.00,0.00,21.2,19.4,00.0,30.2,22.7,10.8,0000.0,0006.86,0002.79,0002.34
2023-01-25 21:28:00,,0827.1,5.02,0.00,21.3,20.7,00.0,30.2,23.0,10.7,0000.0,0004.27,0002.72,0002.34
2023-01-25 21:29:00,,0827.2,5.01,0.00,21.4,21.9,00.0,30.2,23.4,10.6,0000.0,0003.87,0002.68,0002.32
2023-01-25 21:30:00,,0827.2,5.00,0.00,21.6,22.4,00.0,30.2,23.6,10.6,0000.0,0003.59,0002.62,0002.31
2023-01-25 21:31:00,,0827.2,5.00,0.00,21.6,21.9,00.0,30.3,23.5,10.5,0000.0,0003.29,0002.53,0002.29
2023-01-25 21:32:00,,0827.3,5.02,0.00,21.6,21.3,00.0,30.3,23.4,10.2,0000.0,0003.22,0002.51,0002.28
2023-01-25 21:33:00,,0827.3,5.00,0.00,21.6,20.8,00.0,30.3,23.3,10.1,0000.0,0003.09,0002.45,0002.26
2023-01-25 21:34:00,,0827.3,4.99,0.00,21.6,20.6,00.0,30.3,23.3,10.5,0000.0,0003.04,0002.42,0002.24
2023-01-25 21:35:00,,0827.4,5.00,0.00,21.6,20.4,00.0,30.3,23.3,10.9,0000.0,0002.98,0002.41,0002.26
2023-01-25 21:36:00,,0827.4,5.00,0.00,21.6,20.3,00.0,30.3,23.2,10.8,0000.0,0003.46,0002.45,0002.28
2023-01-25 21:37:00,,0827.4,4.99,0.00,21.6,20.2,00.0,30.3,23.2,10.8,0000.0,0003.53,0002.48,0002.29
2023-01-25 21:38:00,,0827.4,4.98,0.00,21.6,20.2,00.0,30.3,23.2,10.7,0000.0,0003.60,0002.52,0002.31
2023-01-25 21:39:00,,0827.4,5.01,0.00,21.6,20.2,00.0,30.3,23.2,10.6,0000.0,0003.61,0002.52,0002.32
2023-01-25 21:40:00,,0827.3,4.98,0.00,21.6,20.1,00.0,30.4,23.2,10.7,0000.0,0003.58,0002.53,0002.33
2023-01-25 21:41:00,,0827.2,5.00,0.00,21.5,20.0,00.0,30.4,23.2,10.6,0000.0,0003.54,0002.52,0002.34
2023-01-25 21:42:00,,0827.2,4.99,0.00,21.5,20.0,00.0,30.3,23.2,10.5,0000.0,0003.55,0002.55,0002.36
2023-01-25 21:43:00,,0827.2,4.99,0.00,21.5,20.0,00.0,30.3,23.2,10.5,0000.0,0003.64,0002.60,0002.39
2023-01-25 21:44:00,,0827.2,5.01,0.00,21.5,19.9,00.0,30.3,23.1,10.5,0000.0,0003.69,0002.63,0002.41
2023-01-25 21:45:00,,0827.2,4.99,0.00,21.5,19.8,00.0,30.3,23.1,10.3,0000.0,0003.89,0002.67,0002.42
2023-01-25 21:46:00,,0827.2,5.00,0.00,21.5,19.8,00.0,30.3,23.1,10.4,0000.0,0004.11,0002.74,0002.42
2023-01-25 21:47:00,,0827.2,5.00,0.00,21.4,19.7,00.0,30.3,23.1,10.6,0000.0,0003.75,0002.72,0002.41
2023-01-25 21:48:00,,0827.2,4.99,0.00,21.4,19.6,00.0,30.3,23.0,10.8,0000.0,0003.58,0002.70,0002.42
2023-01-25 21:49:00,,0827.2,5.00,0.00,21.4,19.5,00.0,30.3,23.0,10.8,0000.0,0003.56,0002.69,0002.41
2023-01-25 21:50:00,,0827.2,5.00,0.00,21.4,19.4,00.0,30.3,23.0,10.8,0000.0,0003.71,0002.72,0002.40
2023-01-25 21:51:00,,0827.2,5.01,0.00,21.4,20.0,00.0,30.2,23.0,10.6,0000.0,0004.04,0002.81,0002.41
2023-01-25 21:52:00,,0827.2,4.99,0.00,21.5,21.3,00.0,30.3,23.3,10.5,0000.0,0004.22,0002.89,0002.42
2023-01-25 21:53:00,,0827.2,4.98,0.00,21.6,21.9,00.0,30.3,23.5,10.4,0000.0,0004.30,0002.92,0002.42
2023-01-25 21:54:00,,0827.2,4.98,0.00,21.6,21.5,00.0,30.3,23.5,10.3,0000.0,0004.36,0002.92,0002.41
2023-01-25 21:55:00,,0827.2,5.00,0.00,21.6,21.0,00.0,30.3,23.4,10.4,0000.0,0004.38,0002.92,0002.40
2023-01-25 21:56:00,,0827.2,5.00,0.00,21.6,20.6,00.0,30.4,23.4,10.5,0000.0,0004.34,0002.92,0002.41
2023-01-25 21:57:00,,0827.2,4.99,0.00,21.6,20.4,00.0,30.3,23.3,10.6,0000.0,0004.12,0002.90,0002.42
2023-01-25 21:58:00,,0827.2,5.00,0.00,21.6,20.2,00.0,30.3,23.3,10.6,0000.0,0004.12,0002.89,0002.42
2023-01-25 21:59:00,,0827.2,5.01,0.00,21.6,20.0,00.0,30.3,23.3,10.6,0000.0,0004.22,0002.92,0002.42
